Location: Moonridge Observatory
(39.2268°N, 77.7914°W)
Time: 13:30:23
(UTC-04:00)

CZ-2C R/B - Visible Passes

Search period start: 02 September 2014 00:00
Search period end: 12 September 2014 00:00
Orbit: 705 x 909 km, 98.1° (Epoch: 01 September)

Date Brightness Start Highest point End Pass type
(mag) Time Alt. Az. Time Alt. Az. Time Alt. Az.
02 Sep 5.1 03:13:31 18° E 03:15:02 21° ENE 03:18:45 10° NNE visible
02 Sep 3.3 04:54:37 41° W 04:54:37 41° W 04:59:20 10° NNW visible
03 Sep 5.7 02:48:52 10° E 02:50:53 13° ENE 02:53:01 10° NE visible
03 Sep 2.7 04:29:57 73° WSW 04:30:02 73° WSW 04:35:06 10° NNW visible
04 Sep 3.2 04:05:18 64° E 04:05:34 65° ENE 04:10:36 10° N visible
04 Sep 4.7 05:46:24 12° W 05:46:24 12° W 05:48:05 10° WNW visible
05 Sep 4.2 03:40:38 36° E 03:41:12 38° ENE 03:45:53 10° N visible
05 Sep 4.1 05:21:44 22° W 05:21:44 22° W 05:25:09 10° NW visible
06 Sep 5.0 03:15:59 22° E 03:16:56 23° ENE 03:20:53 10° NNE visible
06 Sep 3.5 04:57:04 37° W 04:57:04 37° W 05:01:18 10° NNW visible
07 Sep 5.6 02:51:19 13° E 02:52:46 14° ENE 02:55:20 10° NNE visible
07 Sep 2.9 04:32:25 64° WNW 04:32:25 64° WNW 04:37:06 10° NNW visible
08 Sep 3.2 04:07:46 68° NE 04:07:46 68° NE 04:12:39 10° N visible
08 Sep 4.8 05:48:51 12° WNW 05:48:51 12° WNW 05:49:52 10° WNW visible
09 Sep 4.1 03:43:06 41° ENE 03:43:06 41° ENE 03:47:58 10° N visible
09 Sep 4.3 05:24:12 20° WNW 05:24:12 20° WNW 05:27:05 10° NW visible
10 Sep 4.9 03:18:27 25° ENE 03:18:50 25° ENE 03:23:01 10° NNE visible
10 Sep 3.8 04:59:33 33° WNW 04:59:33 33° WNW 05:03:18 10° NNW visible
11 Sep 5.6 02:53:48 15° ENE 02:54:40 15° ENE 02:57:37 10° NNE visible
11 Sep 3.3 04:34:54 52° NW 04:34:54 52° NW 04:39:07 10° NNW visible
